Meteo Giornale » Osservazioni meteo Stati Uniti (USA) » Los Angeles

ore: 21:53 - Osservazioni Meteo Los Angeles
Lat. 33° 56' N Lon. 118° 23' W Alt. 38 metri s.l.m.

sereno America/Los_Angeles

14 °C

Sereno

Temp. 24 Ore

12 °C

19 °C

Est/Sud-Est

7.4 Km/h

Dew point 11 °C

Umidità 82 %

Visibilità  10 Km

Il sole sorge alle ore 06:47

Il sole tramonta alle ore 16:46

Data e Ora Cielo e Fenomeni T °C DP °C Um. % Pres. hPa Vis. km Vento km/h
Oggi h: 21:53 sereno Sereno 14 11 82 1018 10 E/SE 7.4
Oggi h: 20:53 sereno Sereno 15 11 76 1018 10 N 5.5
Oggi h: 19:53 sereno Sereno 16 12 77 1017 10 N 5.5
Oggi h: 18:53 sereno Sereno 16 12 77 1017 10 O/SO 14.8
Oggi h: 17:53 sereno Sereno 16 12 77 1016 10 O 22.2
Oggi h: 16:53 sereno Sereno 16 13 82 1016 11 O/SO 16.7
Oggi h: 15:53 sereno Sereno 17 12 72 1015 13 O/SO 16.7
Oggi h: 14:53 sereno Sereno 17 12 72 1015 13 O 20.3
Oggi h: 13:53 sereno Sereno 18 13 72 1016 13 O 16.7
Oggi h: 12:53 poco_nuvoloso Poco Nuvoloso 18 13 72 1016 13 O 13
Oggi h: 11:53 poco_nuvoloso Poco Nuvoloso 19 11 59 1016 14 N 5.5
Oggi h: 10:53 nuvoloso Nuvoloso 18 10 59 1017 10 N 0
Oggi h: 09:53 nuvoloso Nuvoloso 17 7 51 1017 10 E/SE 11.1
Oggi h: 08:53 molto_nuvoloso Molto Nuvoloso 16 7 55 1017 10 N/NE 7.4
Oggi h: 07:53 molto_nuvoloso Molto Nuvoloso 13 8 71 1017 10 N 0
Oggi h: 06:53 nuvoloso Nuvoloso 13 8 71 1016 13 N 7.4
Oggi h: 05:53 nuvoloso Nuvoloso 12 9 81 1016 13 N 5.5
Oggi h: 04:53 nuvoloso Nuvoloso 12 10 87 1016 13 E 9.3
Oggi h: 04:51 nuvoloso Nuvoloso 12 10 87 1016 13 E 7.4
Oggi h: 03:53 nuvoloso Nuvoloso 12 11 93 1016 14 N 5.5
Oggi h: 02:53 nuvoloso Nuvoloso 13 11 87 1016 10 NE 9.3
Oggi h: 01:53 nuvoloso Nuvoloso 13 11 87 1017 10 NE 7.4
Oggi h: 00:53 nuvoloso Nuvoloso 14 12 87 1017 10 N 5.5
Ieri h: 23:53 molto_nuvoloso Molto Nuvoloso 15 12 82 1016 10 E/SE 9.3
Ieri h: 22:53 molto_nuvoloso Molto Nuvoloso 15 12 82 1017 10 E/SE 7.4
Ieri h: 21:53 molto_nuvoloso Molto Nuvoloso 16 12 77 1017 10 N 0